User: anonymous   Login
Location: Chippewa Lake
(41.0698°N, 81.9010°W)
Time: 22:48:55
(UTC+00:00)
Language:

Cosmos 1867 - Orbit

View from above orbital plane
View from above orbital plane
View from above satellite
View from above satellite

Ground track
Ground track

The orbit data is extracted from the following two-line orbital elements,

1 18187U 87060A   21213.58642740 -.00000080  00000-0  74879-5 0  9990
2 18187  65.0124 332.8793 0020567 275.0906  84.7831 14.31124360779334
Epoch (UTC): 01 August 2021 14:04:27
Eccentricity: 0.0020567
inclination: 65.0124°
perigee height: 773 km
apogee height: 803 km
right ascension of ascending node: 332.8793°
argument of perigee: 275.0906°
revolutions per day: 14.31124360
mean anomaly at epoch: 84.7831°
orbit number at epoch: 77933

The dashed part of the orbit path shows where the satellite is in the earth's shadow,  

DLR